Location: Amsterdam
(30.7274°N, 84.4357°W)
Time: 21:00:17
(UTC+00:00)

Tiros 1 despin weight - Pass Details

Date: 17 February 2026
Orbit: 556 x 593 km, 48.2° (Epoch: 7 March)

Event Time Altitude Azimuth Distance (km) Brightness Sun altitude
Rises 18:26:49 0° 192° (SSW) 2,746 ? 46.7°
Reaches altitude 10° 18:29:38 10° 174° (S) 1,846 ? 46.5°
Maximum altitude 18:32:32 18° 130° (SE) 1,396 ? 46.4°
Drops below altitude 10° 18:35:25 10° 86° (E) 1,840 ? 46.2°
Sets 18:38:13 0° 68° (ENE) 2,733 ? 46.0°
